Date String (YYYY-MM-DD hh:mm:ss) UTC,Instrument flags,Ambient pressure (hPa),Sample flow (lpm),Bypass flow (lpm),Sample temperature (°C),Ambient temperature (°C),ASC tube jacket temperature (°C),LED temperature (°C),Box temperature (°C),Sample RH (%),Span deviation,Mass concentration (μg/m³),Mass concentration (μg/m³),Mass concentration (μg/m³)
DateTimeUTC,F1_M11,P_M11,Q1_M11,Q2_M11,T1_M11,T2_M11,T3_M11,T4_M11,T5_M11,U1_M11,ZSPAN_M11,X0_M11,X2_M11,X1_M11
2021-11-23 03:00:00,,0828.0,5.00,0.00,28.9,28.0,00.0,38.0,30.6,07.0,0000.0,0013.32,0004.76,0003.75
2021-11-23 03:01:00,,0827.9,4.99,0.00,28.9,28.0,00.0,38.0,30.6,07.0,0000.0,0013.71,0004.90,0003.83
2021-11-23 03:02:00,,0828.0,5.01,0.00,28.9,28.0,00.0,38.0,30.6,07.1,0000.0,0014.28,0005.00,0003.89
2021-11-23 03:03:00,,0827.9,5.00,0.00,28.8,28.0,00.0,38.0,30.5,07.2,0000.0,0015.30,0005.15,0004.01
2021-11-23 03:04:00,,0827.8,5.00,0.00,28.8,28.0,00.0,38.0,30.5,07.3,0000.0,0015.40,0005.29,0004.12
2021-11-23 03:05:00,,0827.9,5.00,0.00,28.8,28.0,00.0,38.0,30.5,07.3,0000.0,0016.07,0005.45,0004.25
2021-11-23 03:06:00,,0827.9,4.99,0.00,28.8,28.0,00.0,37.9,30.5,07.2,0000.0,0016.23,0005.54,0004.34
2021-11-23 03:07:00,,0827.9,5.00,0.00,28.8,28.0,00.0,37.9,30.5,07.3,0000.0,0017.06,0005.68,0004.44
2021-11-23 03:08:00,,0827.9,5.00,0.00,28.8,28.0,00.0,37.9,30.5,07.3,0000.0,0017.82,0005.83,0004.57
2021-11-23 03:09:00,,0827.9,5.00,0.00,28.8,28.0,00.0,37.9,30.5,07.3,0000.0,0018.91,0005.96,0004.68
2021-11-23 03:10:00,,0827.9,5.00,0.00,28.8,27.9,00.0,37.9,30.5,07.3,0000.0,0019.40,0006.02,0004.76
2021-11-23 03:11:00,,0827.9,4.99,0.00,28.8,27.9,00.0,37.9,30.4,07.2,0000.0,0019.68,0006.10,0004.79
2021-11-23 03:12:00,,0827.9,4.99,0.00,28.8,27.9,00.0,37.9,30.5,07.2,0000.0,0020.65,0006.13,0004.82
2021-11-23 03:13:00,,0827.9,5.01,0.00,28.8,27.9,00.0,37.9,30.5,07.2,0000.0,0021.38,0006.18,0004.84
2021-11-23 03:14:00,,0827.8,4.99,0.00,28.8,27.9,00.0,37.9,30.5,07.3,0000.0,0021.17,0006.15,0004.83
2021-11-23 03:15:00,,0827.9,4.99,0.00,28.7,27.9,00.0,37.9,30.4,07.3,0000.0,0021.90,0006.18,0004.83
2021-11-23 03:16:00,,0827.7,5.01,0.00,28.7,27.9,00.0,37.9,30.4,07.3,0000.0,0021.42,0006.15,0004.80
2021-11-23 03:17:00,,0827.7,5.00,0.00,28.7,27.9,00.0,37.9,30.4,07.3,0000.0,0022.06,0006.17,0004.77
2021-11-23 03:18:00,,0827.7,4.99,0.00,28.7,27.9,00.0,37.8,30.4,07.3,0000.0,0021.61,0006.08,0004.75
2021-11-23 03:19:00,,0827.7,5.01,0.00,28.7,27.9,00.0,37.8,30.4,07.2,0000.0,0021.07,0006.04,0004.72
2021-11-23 03:20:00,,0827.7,4.99,0.00,28.7,27.9,00.0,37.8,30.4,07.1,0000.0,0020.94,0006.01,0004.67
2021-11-23 03:21:00,,0827.7,5.00,0.00,28.7,27.9,00.0,37.8,30.4,07.1,0000.0,0021.14,0005.99,0004.61
2021-11-23 03:22:00,,0827.7,5.01,0.00,28.7,27.9,00.0,37.8,30.4,06.8,0000.0,0020.21,0005.86,0004.52
2021-11-23 03:23:00,,0827.8,4.99,0.00,28.7,27.9,00.0,37.8,30.4,06.7,0000.0,0018.65,0005.68,0004.43
2021-11-23 03:24:00,,0827.7,4.99,0.00,28.7,27.8,00.0,37.8,30.4,06.7,0000.0,0017.68,0005.51,0004.34
2021-11-23 03:25:00,,0827.7,4.99,0.00,28.7,27.8,00.0,37.8,30.4,06.4,0000.0,0016.38,0005.32,0004.21
2021-11-23 03:26:00,,0827.8,5.00,0.00,28.7,27.8,00.0,37.8,30.4,06.2,0000.0,0015.19,0005.07,0004.03
2021-11-23 03:27:00,,0827.7,5.00,0.00,28.7,27.8,00.0,37.8,30.4,06.3,0000.0,0014.87,0004.84,0003.87
2021-11-23 03:28:00,,0827.8,4.99,0.00,28.7,27.8,00.0,37.8,30.4,06.2,0000.0,0013.25,0004.64,0003.74
2021-11-23 03:29:00,,0827.7,5.00,0.00,28.6,27.8,00.0,37.8,30.3,06.3,0000.0,0012.84,0004.51,0003.58
2021-11-23 03:30:00,,0827.7,5.00,0.00,28.6,27.8,00.0,37.7,30.3,06.6,0000.0,0013.57,0004.44,0003.49
2021-11-23 03:31:00,,0827.6,4.99,0.00,28.6,27.8,00.0,37.7,30.3,06.2,0000.0,0012.53,0004.24,0003.36
2021-11-23 03:32:00,,0827.6,5.00,0.00,28.6,27.8,00.0,37.7,30.3,06.0,0000.0,0011.10,0003.97,0003.19
2021-11-23 03:33:00,,0827.6,5.00,0.00,28.6,27.7,00.0,37.7,30.3,06.1,0000.0,0010.57,0003.82,0003.04
2021-11-23 03:34:00,,0827.5,5.01,0.00,28.6,27.7,00.0,37.7,30.3,06.2,0000.0,0010.35,0003.72,0002.88
2021-11-23 03:35:00,,0827.6,5.01,0.00,28.6,27.7,00.0,37.7,30.3,06.3,0000.0,0009.74,0003.63,0002.73
2021-11-23 03:36:00,,0827.5,4.99,0.00,28.6,27.7,00.0,37.7,30.2,06.2,0000.0,0009.43,0003.56,0002.63
2021-11-23 03:37:00,,0827.5,5.01,0.00,28.6,27.7,00.0,37.7,30.2,06.0,0000.0,0009.21,0003.51,0002.59
2021-11-23 03:38:00,,0827.5,5.00,0.00,28.6,27.7,00.0,37.7,30.2,06.0,0000.0,0008.72,0003.42,0002.51
2021-11-23 03:39:00,,0827.5,5.01,0.00,28.6,27.7,00.0,37.7,30.2,06.0,0000.0,0008.76,0003.34,0002.43
2021-11-23 03:40:00,,0827.4,5.00,0.00,28.5,27.6,00.0,37.7,30.2,06.0,0000.0,0008.24,0003.24,0002.35
2021-11-23 03:41:00,,0827.4,5.00,0.00,28.5,27.6,00.0,37.7,30.2,06.0,0000.0,0006.45,0003.01,0002.15
2021-11-23 03:42:00,,0827.4,5.00,0.00,28.5,27.6,00.0,37.6,30.2,06.2,0000.0,0007.10,0002.91,0002.09
2021-11-23 03:43:00,,0827.4,4.99,0.00,28.5,27.6,00.0,37.6,30.2,06.1,0000.0,0007.10,0002.89,0002.10
2021-11-23 03:44:00,,0827.4,5.00,0.00,28.5,27.6,00.0,37.6,30.1,06.1,0000.0,0007.47,0002.91,0002.10
2021-11-23 03:45:00,,0827.4,5.01,0.00,28.5,27.6,00.0,37.6,30.1,06.1,0000.0,0007.83,0002.87,0002.06
2021-11-23 03:46:00,,0827.4,5.01,0.00,28.5,27.6,00.0,37.6,30.1,06.1,0000.0,0008.71,0002.82,0002.01
2021-11-23 03:47:00,,0827.4,5.00,0.00,28.4,27.5,00.0,37.6,30.1,06.3,0000.0,0009.31,0002.81,0001.98
2021-11-23 03:48:00,,0827.3,5.00,0.00,28.4,27.5,00.0,37.6,30.1,06.5,0000.0,0010.29,0002.91,0002.03
2021-11-23 03:49:00,,0827.3,4.99,0.00,28.4,27.5,00.0,37.6,30.1,06.7,0000.0,0010.88,0003.19,0002.18
2021-11-23 03:50:00,,0827.3,5.02,0.00,28.4,27.5,00.0,37.6,30.1,06.8,0000.0,0011.52,0003.34,0002.35
2021-11-23 03:51:00,,0827.2,5.00,0.00,28.4,27.5,00.0,37.5,30.1,06.8,0000.0,0012.04,0003.48,0002.52
2021-11-23 03:52:00,,0827.4,4.98,0.00,28.4,27.5,00.0,37.5,30.0,06.9,0000.0,0012.73,0003.63,0002.72
2021-11-23 03:53:00,,0827.2,5.01,0.00,28.4,27.5,00.0,37.5,30.0,06.8,0000.0,0013.08,0003.74,0002.88
2021-11-23 03:54:00,,0827.2,5.01,0.00,28.4,27.5,00.0,37.5,30.1,06.4,0000.0,0013.08,0003.78,0002.93
2021-11-23 03:55:00,,0827.2,4.99,0.00,28.4,27.5,00.0,37.5,30.0,06.1,0000.0,0013.58,0003.75,0002.90
2021-11-23 03:56:00,,0827.2,5.00,0.00,28.3,27.4,00.0,37.5,30.0,06.1,0000.0,0014.41,0003.77,0002.88
2021-11-23 03:57:00,,0827.1,5.00,0.00,28.3,27.4,00.0,37.5,30.0,06.1,0000.0,0013.49,0003.76,0002.86
2021-11-23 03:58:00,,0827.1,4.99,0.00,28.3,27.4,00.0,37.5,30.0,06.1,0000.0,0012.72,0003.70,0002.81
2021-11-23 03:59:00,,0827.0,5.00,0.00,28.3,27.4,00.0,37.5,30.0,06.0,0000.0,0011.82,0003.62,0002.71
